CW8826 Weather Reports


Display with metric or nautical units.
time (UTC)temp
F
wind
direction
speed
MPH
gust
MPH
rain 1hr
in
rain 24hr
in
rain mn
in
humidity
%
barometer
mb
20190620090155 61 98 1.0 6.0 0.00 0.00 0.00 38 1010.0
20190620085652 61 137 0.0 2.0 0.00 0.00 0.00 40 1010.0
20190620085152 61 97 2.0 4.0 0.00 0.00 0.00 41 1010.0
20190620084652 61 72 0.0 3.0 0.00 0.00 0.00 40 1010.0
20190620084152 61 49 3.0 13.0 0.00 0.00 0.00 40 1010.1
20190620083652 62 94 7.0 14.0 0.00 0.00 0.00 41 1010.2
20190620083158 63 97 2.0 11.0 0.00 0.00 0.00 37 1010.2
20190620082652 62 53 5.0 16.0 0.00 0.00 0.00 40 1010.2
20190620082152 63 44 4.0 11.0 0.00 0.00 0.00 39 1010.2
20190620081655 63 70 5.0 16.0 0.00 0.00 0.00 38 1010.2
20190620081152 62 111 11.0 16.0 0.00 0.00 0.00 40 1010.2
20190620080652 62 115 8.0 17.0 0.00 0.00 0.00 42 1010.5
20190620080152 62 126 14.0 17.0 0.00 0.00 0.00 42 1010.5
20190620075652 63 113 4.0 13.0 0.00 0.00 0.00 40 1010.6
20190620075152 63 87 10.0 13.0 0.00 0.00 0.00 43 1010.7
20190620074652 63 120 6.0 14.0 0.00 0.00 0.00 41 1010.8
20190620074155 62 103 8.0 18.0 0.00 0.00 0.00 42 1010.8
20190620073652 64 98 12.0 13.0 0.00 0.00 0.00 41 1010.9
20190620073152 64 96 10.0 13.0 0.00 0.00 0.00 41 1011.0
20190620072652 63 79 9.0 15.0 0.00 0.00 0.00 43 1011.0
20190620072152 62 106 7.0 15.0 0.00 0.00 0.00 44 1011.1
20190620071652 63 94 13.0 17.0 0.00 0.00 0.00 45 1011.2
20190620071152 63 100 4.0 7.0 0.00 0.00 0.00 43 1011.3
20190620070655 64 91 6.0 7.0 0.00 0.00 0.00 42 1011.4
20190620070152 64 67 2.0 4.0 0.00 0.00 0.00 42 1011.4
20190620065652 64 156 4.0 5.0 0.00 0.00 0.00 41 1011.5
20190620065152 64 124 4.0 7.0 0.00 0.00 0.00 41 1011.5
20190620064655 65 137 1.0 3.0 0.00 0.00 0.00 41 1011.5
20190620064158 65 136 1.0 4.0 0.00 0.00 0.00 40 1011.5
20190620063652 65 134 0.0 5.0 0.00 0.00 0.00 40 1011.4
20190620063152 65 154 0.0 7.0 0.00 0.00 0.00 40 1011.3
20190620062652 66 119 2.0 5.0 0.00 0.00 0.00 40 1011.3
20190620062152 66 110 1.0 4.0 0.00 0.00 0.00 40 1011.3
20190620061652 66 103 3.0 6.0 0.00 0.00 0.00 40 1011.2
20190620061158 66 143 4.0 7.0 0.00 0.00 0.00 40 1011.2
20190620060652 66 153 2.0 5.0 0.00 0.00 0.00 39 1011.2
20190620060155 67 131 3.0 8.0 0.00 0.00 0.00 39 1011.1
20190620055652 67 145 2.0 4.0 0.00 0.00 0.00 38 1011.1
20190620055152 67 138 2.0 3.0 0.00 0.00 0.00 38 1011.0
20190620054652 67 122 3.0 6.0 0.00 0.00 0.00 39 1010.9
20190620054152 67 141 2.0 4.0 0.00 0.00 0.00 39 1010.8
20190620053652 67 131 2.0 2.0 0.00 0.00 0.00 39 1010.9
20190620053152 67 131 0.0 0.0 0.00 0.00 0.00 40 1010.8
20190620052652 68 148 0.0 4.0 0.00 0.00 0.00 39 1010.7
20190620052155 68 131 3.0 4.0 0.00 0.00 0.00 39 1010.6
20190620051652 68 159 2.0 6.0 0.00 0.00 0.00 38 1010.6
20190620051155 68 108 3.0 8.0 0.00 0.00 0.00 38 1010.6
20190620050652 69 142 2.0 5.0 0.00 0.00 0.00 38 1010.6
20190620050158 69 134 2.0 3.0 0.00 0.00 0.00 37 1010.5
20190620045652 70 150 1.0 5.0 0.00 0.00 0.00 36 1010.5
20190620045155 72 346 0.0 7.0 0.00 0.00 0.00 34 1010.3
20190620044652 72 94 1.0 4.0 0.00 0.00 0.00 31 1010.2
20190620044152 72 90 4.0 8.0 0.00 0.00 0.00 32 1010.0
20190620043652 72 115 5.0 7.0 0.00 0.00 0.00 32 1009.9
20190620043152 72 103 1.0 3.0 0.00 0.00 0.00 33 1009.9
20190620042655 72 112 3.0 11.0 0.00 0.00 0.00 33 1009.7
20190620042158 72 124 6.0 8.0 0.00 0.00 0.00 32 1009.7
20190620041655 71 139 4.0 13.0 0.00 0.00 0.00 34 1009.6
20190620041155 71 144 3.0 11.0 0.00 0.00 0.00 35 1009.6
20190620040658 71 106 10.0 14.0 0.00 0.00 0.00 35 1009.5
20190620040152 72 111 7.0 12.0 0.00 0.00 0.00 34 1009.6
20190620035652 71 98 8.0 13.0 0.00 0.00 0.00 35 1009.6
20190620035152 70 96 9.0 13.0 0.00 0.00 0.00 36 1009.5
20190620034655 70 120 5.0 14.0 0.00 0.00 0.00 37 1009.6
20190620034152 71 109 5.0 14.0 0.00 0.00 0.00 37 1009.5
20190620033655 71 106 5.0 11.0 0.00 0.00 0.00 36 1009.6
20190620033155 72 169 5.0 10.0 0.00 0.00 0.00 36 1009.6
20190620032655 72 129 6.0 12.0 0.00 0.00 0.00 34 1009.5
20190620032152 72 101 9.0 13.0 0.00 0.00 0.00 35 1009.5
20190620031652 72 118 6.0 9.0 0.00 0.00 0.00 34 1009.4
20190620031152 73 106 7.0 11.0 0.00 0.00 0.00 34 1009.3
20190620030652 74 106 2.0 5.0 0.00 0.00 0.00 31 1009.3
20190620030152 75 110 2.0 8.0 0.00 0.00 0.00 31 1009.3
20190620025655 75 117 2.0 5.0 0.00 0.00 0.00 30 1009.2
20190620025152 76 117 2.0 4.0 0.00 0.00 0.00 30 1009.2
20190620024652 77 117 1.0 2.0 0.00 0.00 0.00 30 1009.1
20190620024152 77 4 0.0 0.0 0.00 0.00 0.00 34 1009.1
20190620023655 78 4 0.0 0.0 0.00 0.00 0.00 35 1009.0
20190620023152 79 4 0.0 0.0 0.00 0.00 0.00 33 1009.1
20190620022652 80 1 0.0 0.0 0.00 0.00 0.00 30 1009.0
20190620022152 80 4 0.0 0.0 0.00 0.00 0.00 26 1009.0
20190620021652 81 4 0.0 0.0 0.00 0.00 0.00 25 1009.0
20190620021152 80 4 0.0 0.0 0.00 0.00 0.00 27 1009.0
20190620020652 80 4 0.0 2.0 0.00 0.00 0.00 24 1009.0
20190620020152 80 4 2.0 4.0 0.00 0.00 0.00 25 1009.1
20190620015652 80 334 2.0 2.0 0.00 0.00 0.00 26 1009.1
20190620015158 80 336 0.0 3.0 0.00 0.00 0.00 25 1009.1
20190620014652 81 328 3.0 6.0 0.00 0.00 0.00 23 1009.1
20190620014158 81 340 0.0 3.0 0.00 0.00 0.00 24 1009.0
20190620013652 81 277 1.0 5.0 0.00 0.00 0.00 26 1009.0
20190620013152 81 329 2.0 4.0 0.00 0.00 0.00 25 1009.1
20190620012652 82 316 3.0 6.0 0.00 0.00 0.00 23 1009.1
20190620012152 82 325 2.0 5.0 0.00 0.00 0.00 23 1009.1
20190620011652 82 338 2.0 3.0 0.00 0.00 0.00 25 1009.0
20190620011155 82 249 2.0 2.0 0.00 0.00 0.00 23 1009.0
20190620010658 81 245 2.0 3.0 0.00 0.00 0.00 24 1009.0
20190620010155 81 11 0.0 7.0 0.00 0.00 0.00 23 1009.0
20190620005658 81 277 5.0 7.0 0.00 0.00 0.00 24 1009.0
20190620005152 81 313 4.0 7.0 0.00 0.00 0.00 25 1009.0
20190620004655 81 322 2.0 6.0 0.00 0.00 0.00 25 1009.1
20190620004152 81 328 2.0 8.0 0.00 0.00 0.00 25 1009.1
20190620003652 82 262 6.0 8.0 0.00 0.00 0.00 25 1009.0
20190620003152 81 309 2.0 5.0 0.00 0.00 0.00 25 1009.1
20190620002652 81 330 5.0 8.0 0.00 0.00 0.00 24 1009.1
20190620002152 81 326 5.0 6.0 0.00 0.00 0.00 25 1009.1
20190620001652 80 350 3.0 8.0 0.00 0.00 0.00 24 1009.2
20190620001152 81 330 3.0 8.0 0.00 0.00 0.00 24 1009.2
20190620000655 81 333 1.0 8.0 0.00 0.00 0.00 24 1009.2
20190620000152 81 333 7.0 9.0 0.00 0.00 0.00 25 1009.3
20190619235655 81 257 2.0 10.0 0.00 0.00 0.00 25 1009.4
20190619235152 81 309 4.0 10.0 0.00 0.00 0.00 23 1009.4
20190619234652 81 307 3.0 7.0 0.00 0.00 0.00 23 1009.4
20190619234155 81 23 5.0 10.0 0.00 0.00 0.00 24 1009.5
20190619233652 81 308 6.0 11.0 0.00 0.00 0.00 24 1009.6
20190619233155 81 30 4.0 13.0 0.00 0.00 0.00 24 1009.6
20190619232652 81 337 3.0 8.0 0.00 0.00 0.00 24 1009.6
20190619232152 81 269 4.0 13.0 0.00 0.00 0.00 24 1009.6
20190619231652 81 279 1.0 12.0 0.00 0.00 0.00 24 1009.6
20190619231155 81 240 2.0 12.0 0.00 0.00 0.00 23 1009.6
20190619230652 81 304 5.0 11.0 0.00 0.00 0.00 23 1009.7
20190619230158 81 300 3.0 8.0 0.00 0.00 0.00 22 1009.7
20190619225652 82 259 3.0 5.0 0.00 0.00 0.00 24 1009.7
20190619225155 81 359 6.0 9.0 0.00 0.00 0.00 24 1009.8
20190619224652 81 321 4.0 4.0 0.00 0.00 0.00 24 1009.8
20190619224158 81 219 4.0 9.0 0.00 0.00 0.00 24 1009.9
20190619223655 80 279 4.0 10.0 0.00 0.00 0.00 24 1010.0
20190619223152 80 288 3.0 15.0 0.00 0.00 0.00 24 1010.0
20190619222655 80 301 6.0 13.0 0.00 0.00 0.00 25 1010.0
20190619222158 80 324 12.0 12.0 0.00 0.00 0.00 26 1010.0
20190619221652 80 294 5.0 14.0 0.00 0.00 0.00 26 1010.1
20190619221152 80 37 9.0 16.0 0.00 0.00 0.00 26 1010.1
20190619220652 80 338 5.0 8.0 0.00 0.00 0.00 27 1010.2
20190619220155 79 336 4.0 10.0 0.00 0.00 0.00 26 1010.2
20190619215652 79 342 4.0 14.0 0.00 0.00 0.00 26 1010.2
20190619215152 79 323 7.0 17.0 0.00 0.00 0.00 26 1010.2
20190619214652 79 326 12.0 16.0 0.00 0.00 0.00 27 1010.1
20190619214152 79 308 10.0 15.0 0.00 0.00 0.00 27 1010.2
20190619213655 80 356 11.0 13.0 0.00 0.00 0.00 28 1010.1
20190619213152 80 314 6.0 11.0 0.00 0.00 0.00 26 1010.1
20190619212652 80 274 6.0 11.0 0.00 0.00 0.00 27 1010.1
20190619212155 79 294 5.0 8.0 0.00 0.00 0.00 27 1010.1
20190619211655 79 312 2.0 14.0 0.00 0.00 0.00 28 1010.2
20190619211152 79 328 3.0 9.0 0.00 0.00 0.00 28 1010.3
20190619210655 79 266 3.0 9.0 0.00 0.00 0.00 30 1010.3
20190619210152 79 316 1.0 6.0 0.00 0.00 0.00 31 1010.4
20190619205652 79 330 3.0 5.0 0.00 0.00 0.00 29 1010.5
20190619205152 79 217 1.0 5.0 0.00 0.00 0.00 30 1010.6
20190619204655 78 136 1.0 5.0 0.00 0.00 0.00 31 1010.6
20190619204152 78 263 1.0 11.0 0.00 0.00 0.00 29 1010.6
20190619203652 79 246 8.0 9.0 0.00 0.00 0.00 30 1010.5
20190619203155 79 165 6.0 11.0 0.00 0.00 0.00 29 1010.4
20190619202652 79 118 5.0 12.0 0.00 0.00 0.00 28 1010.5
20190619202152 79 137 3.0 10.0 0.00 0.00 0.00 29 1010.5
20190619201652 79 240 1.0 7.0 0.00 0.00 0.00 29 1010.6
20190619201152 79 224 6.0 8.0 0.00 0.00 0.00 29 1010.6
20190619200652 79 210 2.0 4.0 0.00 0.00 0.00 29 1010.7
20190619200152 78 260 4.0 7.0 0.00 0.00 0.00 30 1010.8
20190619195652 79 352 5.0 6.0 0.00 0.00 0.00 28 1010.8
20190619195152 79 176 0.0 5.0 0.00 0.00 0.00 30 1010.9
20190619194652 79 184 1.0 6.0 0.00 0.00 0.00 30 1010.7
20190619194152 78 307 4.0 7.0 0.00 0.00 0.00 29 1010.9
20190619193652 78 255 4.0 4.0 0.00 0.00 0.00 28 1011.0
20190619193155 79 299 1.0 6.0 0.00 0.00 0.00 29 1010.9
20190619192652 78 214 1.0 4.0 0.00 0.00 0.00 29 1011.0
20190619192152 78 188 4.0 5.0 0.00 0.00 0.00 29 1011.0
20190619191652 77 208 1.0 7.0 0.00 0.00 0.00 29 1011.1
20190619191152 77 215 0.0 8.0 0.00 0.00 0.00 30 1011.0
20190619190652 77 173 4.0 7.0 0.00 0.00 0.00 30 1011.0
20190619190155 76 335 0.0 7.0 0.00 0.00 0.00 29 1011.2
20190619185652 76 309 3.0 7.0 0.00 0.00 0.00 31 1011.2
20190619185152 76 330 5.0 7.0 0.00 0.00 0.00 28 1011.3
20190619184652 76 330 5.0 6.0 0.00 0.00 0.00 29 1011.3
20190619184155 76 300 3.0 6.0 0.00 0.00 0.00 31 1011.3
20190619183652 76 252 0.0 7.0 0.00 0.00 0.00 30 1011.4
20190619183152 75 25 4.0 7.0 0.00 0.00 0.00 30 1011.5
20190619182652 76 271 2.0 5.0 0.00 0.00 0.00 32 1011.5
20190619182152 76 291 2.0 5.0 0.00 0.00 0.00 33 1011.6
20190619181652 75 246 1.0 6.0 0.00 0.00 0.00 32 1011.7
20190619181152 75 222 2.0 7.0 0.00 0.00 0.00 34 1011.7
20190619180652 74 305 1.0 6.0 0.00 0.00 0.00 34 1011.7
20190619180152 74 239 6.0 6.0 0.00 0.00 0.00 34 1011.7
20190619175652 75 276 2.0 6.0 0.00 0.00 0.00 33 1011.8
20190619175152 74 319 2.0 6.0 0.00 0.00 0.00 33 1011.8
20190619174652 75 278 6.0 11.0 0.00 0.00 0.00 31 1011.7
20190619174152 74 222 3.0 5.0 0.00 0.00 0.00 31 1011.8
20190619173655 74 225 2.0 6.0 0.00 0.00 0.00 31 1011.8
20190619173152 74 242 0.0 4.0 0.00 0.00 0.00 33 1011.7
20190619172652 74 332 1.0 5.0 0.00 0.00 0.00 35 1011.8
20190619172152 74 332 2.0 6.0 0.00 0.00 0.00 36 1011.8
20190619171655 74 273 1.0 6.0 0.00 0.00 0.00 38 1011.9
20190619171152 73 134 1.0 7.0 0.00 0.00 0.00 36 1011.9
20190619170652 73 98 2.0 7.0 0.00 0.00 0.00 36 1012.0
20190619170152 73 186 3.0 6.0 0.00 0.00 0.00 36 1012.1
20190619165652 73 201 2.0 4.0 0.00 0.00 0.00 35 1012.1
20190619165152 73 1 3.0 5.0 0.00 0.00 0.00 35 1012.0
20190619164652 72 246 1.0 7.0 0.00 0.00 0.00 34 1012.0
20190619164155 73 264 3.0 8.0 0.00 0.00 0.00 35 1012.1
20190619163652 72 277 2.0 6.0 0.00 0.00 0.00 36 1012.2
20190619163152 73 308 4.0 8.0 0.00 0.00 0.00 34 1012.2
20190619162655 72 142 3.0 5.0 0.00 0.00 0.00 33 1012.2
20190619162158 72 167 2.0 6.0 0.00 0.00 0.00 36 1012.3
20190619161652 72 222 3.0 6.0 0.00 0.00 0.00 36 1012.4
20190619161152 72 300 3.0 4.0 0.00 0.00 0.00 38 1012.5
20190619160655 72 201 3.0 5.0 0.00 0.00 0.00 38 1012.6
20190619160152 72 78 2.0 4.0 0.00 0.00 0.00 40 1012.6
20190619155655 71 291 2.0 5.0 0.00 0.00 0.00 42 1012.7
20190619155152 71 224 0.0 5.0 0.00 0.00 0.00 41 1012.7
20190619154652 71 239 5.0 6.0 0.00 0.00 0.00 40 1012.8
20190619154152 71 319 1.0 4.0 0.00 0.00 0.00 41 1012.7
20190619153652 72 285 1.0 4.0 0.00 0.00 0.00 41 1012.8
20190619153152 72 204 2.0 5.0 0.00 0.00 0.00 40 1012.8
20190619152655 72 290 0.0 3.0 0.00 0.00 0.00 42 1012.8
20190619152152 71 96 0.0 0.0 0.00 0.00 0.00 42 1012.8
20190619151652 70 96 0.0 0.0 0.00 0.00 0.00 44 1012.8
20190619151152 70 96 0.0 0.0 0.00 0.00 0.00 44 1012.9
20190619150652 70 96 0.0 0.0 0.00 0.00 0.00 45 1013.0
20190619150152 69 96 0.0 0.0 0.00 0.00 0.00 46 1013.0
20190619145658 67 96 0.0 0.0 0.00 0.00 0.00 47 1013.1
20190619145152 66 96 0.0 0.0 0.00 0.00 0.00 48 1013.1
20190619144652 66 96 0.0 0.0 0.00 0.00 0.00 48 1013.1
20190619144152 65 96 0.0 0.0 0.00 0.00 0.00 49 1013.1
20190619143652 65 96 0.0 0.0 0.00 0.00 0.00 48 1013.0
20190619143152 64 96 0.0 1.0 0.00 0.00 0.00 49 1013.0
20190619142658 63 96 1.0 3.0 0.00 0.00 0.00 51 1013.1
20190619142155 63 96 1.0 1.0 0.00 0.00 0.00 51 1013.2
20190619141655 64 96 0.0 2.0 0.00 0.00 0.00 50 1013.1
20190619141152 63 96 2.0 3.0 0.00 0.00 0.00 51 1013.1
20190619140655 63 96 0.0 0.0 0.00 0.00 0.00 52 1013.1
20190619140155 63 96 0.0 0.0 0.00 0.00 0.00 51 1013.1
20190619135655 63 96 0.0 3.0 0.00 0.00 0.00 51 1013.1
20190619135152 65 96 1.0 4.0 0.00 0.00 0.00 48 1013.0
20190619134655 65 101 4.0 10.0 0.00 0.00 0.00 46 1012.9
20190619134152 64 97 4.0 9.0 0.00 0.00 0.00 45 1012.9
20190619133652 64 101 5.0 11.0 0.00 0.00 0.00 46 1012.9
20190619133152 65 92 11.0 12.0 0.00 0.00 0.00 45 1013.0
20190619132655 64 112 4.0 8.0 0.00 0.00 0.00 45 1013.1
20190619132152 64 80 4.0 12.0 0.00 0.00 0.00 46 1013.1
20190619131652 64 81 6.0 13.0 0.00 0.00 0.00 45 1013.1
20190619131155 64 109 8.0 13.0 0.00 0.00 0.00 46 1013.2
20190619130652 64 112 11.0 9.0 0.00 0.00 0.00 45 1013.1
20190619130152 64 108 7.0 12.0 0.00 0.00 0.00 45 1013.2
20190619125652 64 160 3.0 8.0 0.00 0.00 0.00 44 1013.2
20190619125152 63 120 6.0 9.0 0.00 0.00 0.00 46 1013.3
20190619124655 63 72 5.0 12.0 0.00 0.00 0.00 47 1013.3
20190619124152 63 84 7.0 13.0 0.00 0.00 0.00 47 1013.4
20190619123655 62 88 10.0 13.0 0.00 0.00 0.00 48 1013.4
20190619123152 62 98 6.0 13.0 0.00 0.00 0.00 47 1013.4
20190619122652 63 89 5.0 13.0 0.00 0.00 0.00 47 1013.3
20190619122152 62 148 4.0 13.0 0.00 0.00 0.00 47 1013.4
20190619121655 62 100 5.0 14.0 0.00 0.00 0.00 47 1013.3
20190619121155 62 141 6.0 15.0 0.00 0.00 0.00 48 1013.4
20190619120652 61 107 12.0 19.0 0.00 0.00 0.00 48 1013.5
20190619120152 61 93 12.0 14.0 0.00 0.00 0.00 49 1013.4
20190619115655 62 103 8.0 16.0 0.00 0.00 0.00 47 1013.4
20190619115152 62 97 14.0 15.0 0.00 0.00 0.00 47 1013.5
20190619114652 63 106 11.0 14.0 0.00 0.00 0.00 46 1013.5
20190619114155 63 103 11.0 12.0 0.00 0.00 0.00 45 1013.7
20190619113652 63 58 7.0 12.0 0.00 0.00 0.00 45 1013.7
20190619113152 63 108 10.0 14.0 0.00 0.00 0.00 45 1013.6
20190619112652 64 100 6.0 11.0 0.00 0.00 0.00 44 1013.6
20190619112152 64 145 4.0 13.0 0.00 0.00 0.00 44 1013.5
20190619111652 64 86 11.0 16.0 0.00 0.00 0.00 43 1013.6
20190619111152 64 105 10.0 17.0 0.00 0.00 0.00 44 1013.7
20190619110655 63 115 9.0 14.0 0.00 0.00 0.00 45 1013.7
20190619110152 64 103 8.0 13.0 0.00 0.00 0.00 44 1013.8
20190619105652 63 124 6.0 15.0 0.00 0.00 0.00 46 1013.8
20190619105155 63 103 10.0 15.0 0.00 0.00 0.00 46 1013.8
20190619104655 63 115 5.0 13.0 0.00 0.00 0.00 45 1013.7
20190619104152 65 146 5.0 16.0 0.00 0.00 0.00 43 1013.8
20190619103655 66 98 11.0 16.0 0.00 0.00 0.00 41 1013.8
20190619103152 65 102 9.0 14.0 0.00 0.00 0.00 42 1013.8
20190619102655 65 63 10.0 17.0 0.00 0.00 0.00 42 1013.9
20190619102155 65 84 9.0 17.0 0.00 0.00 0.00 43 1013.9
20190619101655 65 102 9.0 17.0 0.00 0.00 0.00 43 1013.9
20190619101152 65 103 10.0 16.0 0.00 0.00 0.00 43 1014.0
20190619100658 65 108 12.0 17.0 0.00 0.00 0.00 43 1014.0
20190619100152 65 60 11.0 17.0 0.00 0.00 0.00 43 1014.0
20190619095655 65 103 12.0 18.0 0.00 0.00 0.00 42 1014.1
20190619095152 65 92 11.0 18.0 0.00 0.00 0.00 42 1014.1
20190619094655 67 148 5.0 12.0 0.00 0.00 0.00 40 1014.1
20190619094152 67 106 10.0 12.0 0.00 0.00 0.00 40 1014.2
20190619093652 67 112 7.0 15.0 0.00 0.00 0.00 40 1014.2
20190619093152 67 136 3.0 14.0 0.00 0.00 0.00 40 1014.1
20190619092655 66 108 8.0 15.0 0.00 0.00 0.00 41 1014.2
20190619092155 66 103 8.0 13.0 0.00 0.00 0.00 42 1014.3
20190619091652 66 114 5.0 12.0 0.00 0.00 0.00 41 1014.3
20190619091152 66 84 5.0 12.0 0.00 0.00 0.00 41 1014.4
20190619090655 65 97 10.0 13.0 0.00 0.00 0.00 42 1014.4